Regional Weather Roundup
Issued by NWS

Home | Current Version | Previous Version | Graphics & Text | Print | Product List | Glossary On
Versions: 1 2 3 4 5 6 7 8 9 10 11 12 13 14 15 16 17 18 19 20 21 22 23 24 25 26 27 28 29 30 31 32 33 34 35 36 37 38 39 40 41 42 43 44 45 46 47 48 49 50
000
ASUS43 KMKX 060400
RWRWI

WISCONSIN REGIONAL WEATHER ROUNDUP
NATIONAL WEATHER SERVICE MILWAUKEE/SULLIVAN WI
1100 PM CDT SUN JUL 05 2015

NOTE: "FAIR" INDICATES FEW OR NO CLOUDS BELOW 12,000 FEET WITH NO
SIGNIFICANT WEATHER AND/OR OBSTRUCTIONS TO VISIBILITY.

WIZ001-002-006>008-014>016-023>028-060500-
NORTHWEST WISCONSIN

CITY           SKY/WX    TMP DP  RH WIND       PRES   REMARKS
SUPERIOR ARPT  CLOUDY    73  70  90 CALM      29.77S
ASHLAND        CLOUDY    76  66  71 S14G21    29.79F
HAYWARD        CLOUDY    75  65  70 S13       29.84S
SIREN          PTCLDY    77  66  69 S13G20    29.78F
CUMBERLAND     MOCLDY    72  64  78 S8        29.86R
RICE LAKE      PTCLDY    73  65  77 S7        29.87R
CHETEK         PTCLDY    73  67  79 CALM      29.87R
LADYSMITH      PTCLDY    73  64  73 S7        29.90R
EAU CLAIRE     NOT AVBL
MENOMONIE      CLEAR     74  65  73 S7        29.86R
NEW RICHMOND   PTCLDY    73  65  76 S8        29.83S
OSCEOLA        PTCLDY    76  66  70 S10       29.84S
$$

WIZ003>005-009-010-017-018-060500-
NORTH CENTRAL WISCONSIN

CITY           SKY/WX    TMP DP  RH WIND       PRES   REMARKS
MANITOWISH WTR MOCLDY    71  64  79 S8        29.89R
ARBOR VITAE    PTCLDY    72  63  73 S10G18    29.89F
WOODRUFF       PTCLDY    72  63  73 S10G18    29.89F
RHINELANDER    CLEAR     72  61  68 SW8       29.93R
EAGLE RIVER    PTCLDY    72  59  64 SW5       29.91R
LAND O LAKES   CLEAR     72  61  68 S7        29.91S
PHILLIPS       PTCLDY    71  64  79 SW7       29.89R
TOMAHAWK       CLEAR     69  62  79 CALM      29.92R
MEDFORD        CLEAR     70  64  79 S12       29.91R
MERRILL        CLEAR     72  64  76 S8        29.92S
$$

WIZ029-030-035-036-043>047-060500-
CENTRAL WISCONSIN

CITY           SKY/WX    TMP DP  RH WIND       PRES   REMARKS
WAUSAU         CLEAR     72  63  73 SE8       29.90F
MOSINEE        CLEAR     70  64  83 S8        29.93F
MARSHFIELD     CLEAR     71  62  73 S10       29.91F
STEVENS POINT  CLEAR     70  62  76 S8        29.93F
WAUPACA        CLEAR     72  65  81 S6        29.94F
WAUTOMA        NOT AVBL
WISC RAPIDS    CLEAR     72  62  71 S6        29.93F
CAMP DOUGLAS   NOT AVBL
$$

WIZ011>013-019>022-031-037>040-048>050-060500-
NORTHEAST WISCONSIN

CITY           SKY/WX    TMP DP  RH WIND       PRES   REMARKS
ANTIGO         CLEAR     66  63  89 S7        29.94F
SHAWANO        CLEAR     74  64  69 S5        29.93F
OCONTO         CLEAR     70  64  82 S6        29.93S
STURGEON BAY   CLEAR     66  57  72 S7        29.97S
GREEN BAY      CLEAR     70  62  76 S9        29.94F
MANITOWOC      NOT AVBL
APPLETON       PTCLDY    72  61  68 S8        29.95F
CLINTONVILLE   CLEAR     72  63  73 S7        29.93F
OSHKOSH        CLEAR     69  63  81 S6        29.95F
$$

WIZ032>034-041-042-053>061-060500-
SOUTHWEST WISCONSIN

CITY           SKY/WX    TMP DP  RH WIND       PRES   REMARKS
LA CROSSE      CLEAR     76  65  68 S9        29.88R
SPARTA         CLEAR     73  62  68 S12       29.90F
VIROQUA        CLEAR     70  65  83 SE12      29.92F
BOSCOBEL       CLEAR     74  65  73 S6        29.92F HAZE
PRAIRIE DU CHI CLEAR     74  64  69 SE10G17   29.90F
PLATTEVILLE    CLEAR     69  66  90 SE9       29.96F
$$

WIZ056-057-062-063-064-067-068-060500-
SOUTH CENTRAL WISCONSIN

CITY           SKY/WX    TMP DP  RH WIND       PRES   REMARKS
REEDSBURG      CLEAR     71  65  81 S6        29.93F
BARABOO/DELLS  CLEAR     70  63  78 S10       29.93F
LONE ROCK      NOT AVBL
MINERAL POINT  CLEAR     72  66  83 S9        29.96F
MADISON        PTCLDY    74  63  68 S10       29.95F
MIDDLETON      CLEAR     74  63  68 S10       29.97F
WATERTOWN      CLEAR     67  67  98 SE3       29.98F
MONROE         CLEAR     70  63  78 S9        29.98F
JANESVILLE     CLEAR     70  61  73 S3        29.99S
$$

WIZ051-052-058>065-066-070>072-060500-
SOUTHEAST WISCONSIN

CITY           SKY/WX    TMP DP  RH WIND       PRES   REMARKS
MILWAUKEE      PTCLDY    70  59  68 S8        30.00F
WAUKESHA       CLEAR     68  59  73 S3        30.01F
MILWAUKEE/TIMM CLEAR     70  57  64 S5        30.01S
RACINE         CLEAR     71  59  65 S8        30.02F
BURLINGTON     CLEAR     61  60  96 CALM      30.00F FOG
KENOSHA        CLEAR     68  60  75 S7        30.01S
FOND DU LAC    CLEAR     71  62  73 S8        29.95F
SHEBOYGAN      CLEAR     67  59  75 S9        29.96F
WEST BEND      CLEAR     64  61  88 SE3       29.99F
JUNEAU         CLEAR     70  63  78 SE12      29.97F
$$

LSZ147-162-060500-
LAKE SUPERIOR

STATION/POSITION TIME  TEMP    WIND        PRES    WAVE
                       AIR SEA DIR/SP/G            HT/PER
                 (UTC) (F)     (DEG/KT/KT) (MB)    (FT/S)
W MID LAKE BUOY  0250   53 39  190/  8/ 10 1009.2R   0
DEVILS ISLAND    0300   74     180/  8/ 11 1007.6R
SAXON HARBOR     0340   78     190/  7/ 16 1008.5R
$$

LMZ867-665-643>646-060500-
LAKE MICHIGAN

STATION/POSITION TIME  TEMP    WIND        PRES    WAVE
                       AIR SEA DIR/SP/G            HT/PER
                 (UTC) (F)     (DEG/KT/KT) (MB)    (FT/S)
CHAMBERS ISLAND  0300   71     150/  8/ 17 1013.5F
S GREEN BAY BUOY 0300   72 70  170/ 16/ 21 1015.2
N MID LAKE BUOY  0250   56 47  200/ 12/ 14 1015.2R   2/ 4
NORTHPORT PIER   0300   67     170/  7/ 13 1014.2F
SISTER BAY       0344   69     130/ 13/ 19   N/A
ALGOMA LAKESHORE 0211          210/  9/ 11   N/A
KEWAUNEE LAKESHO 0300   62     170/  9/ 10 1014.7R
SHEBOYGAN LAKESH 0300   67     190/ 15/ 16 1015.9R
PORT WASHINGTON  0300   65     190/  5/  8 1016.6R
ATWATER BUOY     0300   64 60  170/  6/  8 1017.1R
MILWAUKEE LAKESH 0300   65     170/  8/  8   N/A
KENOSHA   LAKESH 0300   69     180/ 10/ 14 1015.9R
$$

TC  - TEMPERATURE IN CELSIUS
VSB - VISIBILITY IN STATUTE MILES
WCI - WIND CHILL INDEX
HX  - HEAT INDEX




USA.gov is the U.S. government's official web portal to all federal, state and local government web resources and services.